Regional Weather Roundup
Issued by NWS

Home | Current Version | Previous Version | Text Only | Print | Product List | Glossary On
Versions: 1 2 3 4 5 6 7 8 9 10 11 12 13 14 15 16 17 18 19 20 21 22 23 24 25 26 27 28 29 30 31 32 33 34 35 36 37 38 39 40 41 42 43 44 45 46 47 48 49 50
000
ASUS44 KEWX 290503
RWRTX
SOUTH TEXAS REGIONAL WEATHER ROUNDUP
NATIONAL WEATHER SERVICE AUSTIN/SAN ANTONIO TX
1200 AM CDT WED JUL 29 2015

NOTE: "FAIR" INDICATED FEW OR NO CLOUDS BELOW 12,000 FEET WITH NO
SIGNIFICANT WEATHER AND/OR OBSTRUCTIONS TO VISIBILITY.

* - THESE STATIONS ARE NOT NWS OR FAA STATIONS...AND ARE NOT SUBJECT
    TO NWS AND FAA QUALITY CONTROL.

TXZ171-172-183>190-290600-
TEXAS HILL COUNTRY AND EDWARDS PLATEAU

CITY           SKY/WX    TMP DP  RH WIND       PRES   REMARKS
JUNCTION       NOT AVBL
*LLANO         CLEAR     88  68  51 S10G20    30.01R HX  91
BURNET         NOT AVBL
*HORSESHOE BAY CLEAR     83  68  60 S9G18     30.00R
*KERRVILLE     CLEAR     82  71  69 SE12      30.02R
*FREDERICKSBRG CLEAR     81  66  60 S5        30.02R
*ROCKSPRINGS   PTCLDY    82  70  65 SE14G20   30.05R
*BOERNE STAGE  CLEAR     79  68  69 SE9       30.03R
*CASTROVILLE   CLEAR     83  68  60 SE13      29.99R
HONDO          NOT AVBL
*UVALDE        CLEAR     84  72  66 SE13      29.97R
DEL RIO        NOT AVBL
LAUGHLIN AFB   NOT AVBL
CARRIZO SPRGS  CLEAR     88  64  45 SE12      29.90R
$$

TXZ173-191>194-202-209-217>225-228-290600-
CENTRAL AND SOUTH CENTRAL TEXAS

CITY           SKY/WX    TMP DP  RH WIND       PRES   REMARKS
GEORGETOWN     CLEAR     84  66  54 S18       29.98R
AUSTIN/BERGSTM NOT AVBL
AUSTIN/MABRY   NOT AVBL
*AUSTIN/EXEC   PTCLDY    81  72  74 S7        30.00R
*LAGO VISTA    CLEAR     82  71  68 SE10      30.03R
SAN MARCOS     CLEAR     81  73  78 S9        30.01R
NEW BRAUNFELS  NOT AVBL
RANDOLPH AFB   NOT AVBL
PT SAN ANTONIO NOT AVBL
SAN ANTONIO    NOT AVBL
STINSON FIELD  NOT AVBL
*PLEASANTON    CLEAR     81  72  74 SE8       29.98R
*LA GRANGE     CLEAR     81  76  84 S7        29.97R
*GIDDINGS      CLEAR     80  72  75 S6        30.03R
*GONZALES      CLOUDY    79  74  85 SE5       29.99R
$$

TXZ163>164-176>182-195>201-210>213-226-227-235-290600-
SOUTHEAST TEXAS

CITY           SKY/WX    TMP DP  RH WIND       PRES   REMARKS
COLLEGE STN    NOT AVBL
*BRYAN         CLEAR     84  74  72 S16       29.99R HX  91
*CALDWELL      CLEAR     82  73  74 S12       30.01R
*CROCKETT      CLEAR     84  73  70 S5        30.00R HX  91
*BRENHAM       CLEAR     83  75  79 SE5       30.00R HX  90
HUNTSVILLE     NOT AVBL
CONROE         NOT AVBL
HOUSTON BUSH   NOT AVBL
HOUSTON HOBBY  NOT AVBL
*HOUSTON SW AP CLEAR     78  75  91 CALM      29.99S
PEARLAND       NOT AVBL
HOUSTON HOOKS  NOT AVBL
ELLINGTON FLD  NOT AVBL
SUGAR LAND     NOT AVBL
*HOUSTON EXEC  CLEAR     79  75  89 S7        30.00R
*CLEVELAND MUN CLEAR     78  75  91 S3        30.00R
*WHARTON       CLEAR     77  75  92 SE6       30.00R
*COLUMBUS      FAIR      79  76  90 S6        29.98S
*EAGLE LAKE    CLEAR     79  76  89 S7        29.98S
$$

TXZ214>216-236>238-290600-
THE UPPER TEXAS COAST

CITY           SKY/WX    TMP DP  RH WIND       PRES   REMARKS
*ORANGE        CLEAR     81  76  84 CALM      30.00S
PORT ARTHUR    NOT AVBL
GALVESTON      NOT AVBL
ANGLETON       NOT AVBL
*BAY CITY      CLEAR     80  78  95 S3        29.99S
PALACIOS       NOT AVBL
$$

TXZ229>234-239>247-290600-
TEXAS COASTAL BEND AND RIO GRANDE PLAINS

CITY           SKY/WX    TMP DP  RH WIND       PRES   REMARKS
VICTORIA       NOT AVBL
*BEEVILLE      CLEAR     78  78  98 SE5       29.98R
ROCKPORT       NOT AVBL
*PORT ARANSAS  CLEAR     82  79  91 S9        29.98R HX  91
*PORT LAVACA   CLEAR     79  77  94 SE5       29.99R
*INGLESIDE     CLEAR     83  78  82 S14       29.97R HX  93
CORPUS CHRISTI NOT AVBL
CORPUS NAS     CLEAR     82  78  88 S13G23    29.97R HX  91
*ROBSTOWN      CLEAR     82  78  89 SE9       29.98R HX  90
ALICE          NOT AVBL
KINGSVILLE NAS CLEAR     82  79  90 SE14      29.97R HX  92
COTULLA        NOT AVBL
*FAITH RANCH   CLEAR     90  66  45 SE17G28   29.92R HX  92
LAREDO         CLEAR     87  69  54 SE20      29.96R HX  91
$$

TXZ248>255-290600-
DEEP SOUTH TEXAS

CITY           SKY/WX    TMP DP  RH WIND       PRES   REMARKS
BROWNSVILLE    NOT AVBL
PORT ISABEL    NOT AVBL
*SOUTH PADRE   CLEAR     81  79  94 SE9       29.98R
HARLINGEN      NOT AVBL
*HEBBRONVILLE    N/A     81  69  68 SE10      29.98R
MCALLEN        MOCLDY    86  77  74 SE14      29.97R HX  97
*WESLACO       CLEAR     83  76  80 SE12      29.96S HX  90
FALFURRIAS     CLEAR     82  75  80 SE10G16   29.96R
EDINBURG       CLEAR     83  76  79 SE10      29.97R HX  92
*ZAPATA        CLEAR     85  69  59 SE14G22   29.94R
$$

TXZ213>215-236>238-242>244-246-247-251-254-255-290600-
CMAN STATIONS

STATION/POSITION TIME  TEMP    WIND        PRES    WAVE
                       AIR SEA DIR/SP/G            HT/PER
                 (UTC) (F)     (DEG/KT/KT) (MB)    (FT/S)
$$

GMZ080-GMZ150>470-290600-
OFFSHORE BUOY REPORTS

STATION/POSITION TIME  TEMP    WIND        PRES    WAVE
                       AIR SEA DIR/SP/G            HT/PER
                 (UTC) (F)     (DEG/KT/KT) (MB)    (FT/S)
$$


USA.gov is the U.S. government's official web portal to all federal, state and local government web resources and services.